Regional Weather Roundup
Issued by NWS

Home | Current Version | Previous Version | Graphics & Text | Print | Product List | Glossary On
Versions: 1 2 3 4 5 6 7 8 9 10 11 12 13 14 15 16 17 18 19 20 21 22 23 24 25 26 27 28 29 30 31 32 33 34 35 36 37 38 39 40 41 42 43 44 45 46 47 48 49 50
360
ASUS43 KBIS 251710
RWRND

NORTH DAKOTA REGIONAL WEATHER ROUNDUP
NATIONAL WEATHER SERVICE BISMARCK ND
1100 AM CST SAT FEB 25 2017

NOTE: "FAIR" INDICATES FEW OR NO CLOUDS BELOW 12,000 FEET WITH NO
SIGNIFICANT WEATHER AND/OR OBSTRUCTIONS TO VISIBILITY.


NDZ001>003-009>011-017-251800-
NORTHWEST NORTH DAKOTA

CITY           SKY/WX    TMP DP  RH WIND       PRES   REMARKS
WILLISTON      PTSUNNY   22  17  81 W5        29.86F WCI  16
MINOT          PTSUNNY   22  17  81 W14       29.85F WCI   9
MINOT AFB      MOSUNNY   20  15  80 NW12      29.85F WCI   8
$$

NDZ018>021-031>035-040>046-251800-
SOUTHWEST NORTH DAKOTA

CITY           SKY/WX    TMP DP  RH WIND       PRES   REMARKS
BISMARCK       LGT SNOW  27  24  89 N9        29.87S VSB 1   WCI  18
DICKINSON      CLOUDY    22  18  85 NW10      29.82F WCI  11
GARRISON         N/A     24  19  81 NW10      29.85F WCI  14
HETTINGER ARPT CLOUDY    27  21  78 NW18      29.85S WCI  14
$$

NDZ004>008-012>016-024-026-027-054-251800-
NORTHEAST NORTH DAKOTA

CITY           SKY/WX    TMP DP  RH WIND       PRES   REMARKS
GRAND FORKS    PTSUNNY   30  20  66 W9        29.82F
GRND FRKS AFB  PTSUNNY   30  22  73 NW13      29.82F WCI  20
DEVILS LAKE    CLOUDY    21  19  93 NW14      29.82F WCI   8
$$

NDZ022-023-025-028>030-036>039-047>053-251800-
SOUTHEAST NORTH DAKOTA

CITY           SKY/WX    TMP DP  RH WIND       PRES   REMARKS
FARGO          CLOUDY    29  20  69 SW15      29.87F WCI  18
JAMESTOWN      CLOUDY    25  21  85 NW14      29.83F WCI  13
$$





USA.gov is the U.S. government's official web portal to all federal, state and local government web resources and services.